Weather History for Challis, ID

Change the Weather History Date:

Friday, June 28, 2013

  Actual Average Record
Temperature  
Mean Temperature 73 °F 64 °F  
Max Temperature 95 °F 80 °F 97 °F (2007)
Min Temperature 50 °F 48 °F 33 °F (1969)
Degree Days  
Heating Degree Days 0 3  
Month to date heating degree days 121 162  
Since 1 June heating degree days 121 162  
Since 1 July heating degree days 7742 8158  
Cooling Degree Days 8 2  
Month to date cooling degree days 44 17  
Year to date cooling degree days 46 19  
Since 1 June cooling degree days 44 17  
Growing Degree Days 24 (Base 50)    
Moisture  
Dew Point 37 °F    
Average Humidity 31    
Maximum Humidity 51    
Minimum Humidity 11    
Precipitation  
Precipitation 0.00 in 0.04 in 0.30 in (1970)
Month to date precipitation 0.51 1.54  
Year to date precipitation 1.73 5.68  
Sea Level Pressure  
Sea Level Pressure 30.09 in    
Wind  
Wind Speed 3 mph (NNE)    
Max Wind Speed 12 mph    
Max Gust Speed 13 mph    
Visibility 10 miles    
Events      
T = Trace of Precipitation, MM = Missing Value Source: NWS Daily Summary

Daily Weather History Graph

Daily Weather History Graph

Search for Another Location

Airport:

Trip Planner

Search our weather history database for the weather conditions in past years. The results will help you decide how hot, cold, wet, or windy it might be!

Date:

Astronomy

Jun. 28, 2013 Rise Set
Actual Time 5:54 AM MDT 9:25 PM MDT
Civil Twilight 5:17 AM MDT 10:02 PM MDT
Nautical Twilight 4:29 AM MDT 10:50 PM MDT
Astronomical Twilight 3:26 AM MDT 11:53 PM MDT
Moon 12:10 AM MDT (6/28) 12:22 PM MDT (6/28)
Length of Visible Light 16h 44m
Length of Day
15h 31m
Waning Gibbous, 65% of the Moon is Illuminated
Jun 28
Waning Gibbous
Jun 29
Last Quarter
Jul 8
New
Jul 15
First Quarter
Jul 22
Full

Hourly Weather History & Observations

Time (MDT) Temp. Dew Point Humidity Pressure Visibility Wind Dir Wind Speed Gust Speed Precip Events Conditions
12:55 AM 63.0 °F 37.9 °F 40% 30.13 in 10.0 mi Calm Calm - N/A   Clear
1:55 AM 57.9 °F 37.9 °F 47% 30.14 in 10.0 mi North 3.5 mph - N/A   Clear
2:55 AM 60.1 °F 34.0 °F 38% 30.14 in 10.0 mi Calm Calm - N/A   Clear
3:55 AM 57.0 °F 35.1 °F 44% 30.14 in 10.0 mi Calm Calm - N/A   Clear
4:55 AM 53.1 °F 36.0 °F 52% 30.15 in 10.0 mi Calm Calm - N/A   Clear
5:55 AM 53.1 °F 35.1 °F 50% 30.17 in 10.0 mi SE 3.5 mph - N/A   Clear
6:55 AM 55.0 °F 37.0 °F 51% 30.19 in 10.0 mi Calm Calm - N/A   Clear
7:55 AM 59.0 °F 41.0 °F 51% 30.19 in 10.0 mi Calm Calm - N/A   Clear
8:55 AM 64.0 °F 37.9 °F 38% 30.19 in 10.0 mi Calm Calm - N/A   Clear
9:55 AM 69.1 °F 41.0 °F 36% 30.19 in 10.0 mi NE 3.5 mph - N/A   Clear
10:55 AM 73.0 °F 37.0 °F 27% 30.17 in 10.0 mi NNE 4.6 mph - N/A   Clear
11:55 AM 78.1 °F 39.0 °F 25% 30.14 in 10.0 mi Calm Calm - N/A   Clear
12:55 PM 84.0 °F 36.0 °F 18% 30.12 in 10.0 mi NNE 3.5 mph - N/A   Clear
1:55 PM 88.0 °F 36.0 °F 16% 30.09 in 10.0 mi North 6.9 mph - N/A   Clear
2:55 PM 91.9 °F 30.9 °F 11% 30.05 in 10.0 mi North 4.6 mph - N/A   Clear
3:55 PM 93.0 °F 30.0 °F 11% 30.02 in 10.0 mi Calm Calm - N/A   Clear
4:55 PM 95.0 °F 33.1 °F 11% 30.01 in 10.0 mi Variable 3.5 mph - N/A   Clear
5:55 PM 93.0 °F 33.1 °F 12% 29.99 in 10.0 mi NNE 3.5 mph - N/A   Clear
6:55 PM 87.1 °F 39.9 °F 19% 29.99 in 10.0 mi North 5.8 mph - N/A   Clear
7:55 PM 90.0 °F 39.0 °F 17% 29.96 in 10.0 mi NNE 4.6 mph - N/A   Clear
8:55 PM 80.1 °F 44.1 °F 28% 29.98 in 10.0 mi North 6.9 mph - N/A   Clear
9:55 PM 81.0 °F 36.0 °F 20% 29.98 in 10.0 mi NW 8.1 mph - N/A   Clear
10:55 PM 73.9 °F 37.0 °F 26% 30.00 in 10.0 mi NW 3.5 mph - N/A   Clear
11:55 PM 69.1 °F 42.1 °F 38% 30.01 in 10.0 mi SSE 3.5 mph - N/A   Clear